Presure
320 361 342 326 339 320 317 337 318 294 281 279 281 291 254 219 229 177 212 199 202 181 191 182 180 180 176 177 178 165 175 176 168 168 157 164 164 158 92 123 124 106 134 134 149
283 367 347 336 323 335 319 308 333 292 298 273 273 278 287 248 200 231 204 191 204 202 190 186 184 177 186 175 153 170 176 171 175 177 176 164 164 155 143 158 155 111 89 100 142
280 361 351 334 325 314 320 317 323 326 298 276 269 272 265 285 253 238 237 208 165 198 194 192 197 185 179 175 177 176 167 174 173 175 178 178 173 142 143 158 165 168 141 166 153
280 347 347 347 323 320 332 317 309 308 343 297 281 276 274 258 277 231 247 225 204 219 194 195 193 183 197 186 167 180 182 173 175 175 170 167 170 175 177 177 170 166 165 124 172
330 145 346 342 340 313 310 323 313 302 301 316 289 287 272 272 253 275 230 236 201 192 221 214 196 194 214 183 182 175 172 163 165 164 175 172 173 163 166 170 181 181 166 165 174
268 371 328 329 344 331 315 304 309 305 286 300 316 305 278 259 253 263 269 236 226 223 213 215 219 202 194 201 193 172 175 176 183 186 175 156 174 172 172 164 170 173 172 174 175
370 334 179 283 143 284 323 313 297 306 295 285 312 292 292 271 243 248 268 265 244 214 220 219 211 216 212 202 189 193 190 184 185 176 177 182 168 151 164 169 168 161 161 156 159
352 323 579 585 440 316 290 320 300 292 295 286 294 267 295 280 257 253 262 260 257 242 211 222 218 211 211 219 210 204 193 190 184 188 182 181 179 183 182 183 171 176 178 168 184
325 516 490 470 454 584 334 299 312 295 294 288 288 284 345 288 271 260 255 249 254 256 237 225 217 215 214 211 208 213 211 212 204 207 196 210 187 185 176 185 179 191 200 194 198
552 538 489 474 462 433 565 336 292 285 274 294 283 283 337 312 284 266 257 251 243 253 249 241 231 207 212 205 211 205 214 205 201 194 205 198 188 182 186 189 202 183 181 95 175
472 457 438 455 454 464 518 570 305 290 286 298 281 274 308 319 290 280 255 255 245 246 250 250 241 209 210 209 201 200 208 207 167 209 204 194 202 199 194 190 192 200 204 200 198
561 455 447 435 436 434 483 558 337 277 284 288 283 276 288 321 307 278 260 269 250 240 252 244 240 237 216 236 209 205 210 209 200 212 207 206 206 197 204 199 206 205 206 202 203
507 466 438 428 424 419 447 559 545 276 284 288 283 266 270 315 311 270 270 274 276 245 242 247 244 246 235 230 226 224 203 207 208 205 202 203 202 206 198 197 199 199 198 199 202
434 429 437 448 418 420 523 558 477 275 271 289 282 265 265 307 315 274 257 265 274 261 250 241 243 233 236 238 247 224 226 219 212 211 205 199 192 196 191 192 192 95 212 211 198
429 422 409 419 443 441 506 470 368 280 273 284 274 264 266 297 304 310 257 255 259 258 253 249 250 241 231 238 239 235 239 236 225 223 218 213 209 210 201 203 205 208 208 207 217
440 438 427 449 458 455 507 361 340 276 267 289 274 265 259 289 301 313 264 254 254 251 258 250 244 245 249 248 240 237 239 236 234 234 226 225 228 219 211 214 217 217 217 220 226
482 475 459 441 460 477 388 350 316 282 265 273 270 264 251 284 299 301 288 258 250 250 243 253 255 250 244 250 254 238 237 239 244 231 233 230 222 226 219 215 216 219 223 226 229
445 450 437 449 468 337 346 344 310 281 259 271 251 259 257 293 300 291 294 282 262 255 246 249 244 236 245 247 246 255 238 240 239 229 229 223 225 224 217 218 227 113 213 154 213
429 460 453 464 479 335 349 324 299 259 251 270 262 239 277 287 283 276 281 288 291 294 287 268 257 248 253 254 255 249 256 257 250 235 235 232 230 231 221 103 213 111 243 247 104
439 487 483 487 350 127 335 325 287 254 254 252 252 237 272 276 269 272 265 265 264 267 265 266 272 276 270 271 267 234 240 242 245 241 240 230 225 230 249 249 236 150 226 176 90
473 505 506 346 335 343 327 325 255 253 259 243 238 265 281 268 259 256 255 257 260 257 252 249 249 247 255 251 249 248 250 251 245 244 247 239 228 221 254 266 259 248 248 111 194
497 480 355 352 338 325 328 321 255 245 246 241 245 230 275 264 264 263 254 251 245 244 245 249 252 260 265 257 247 243 242 235 223 220 257 260 247 248 240 235 236 232 272 276 81
513 373 358 357 325 333 328 262 257 247 246 239 264 272 275 266 265 255 261 257 250 244 242 242 243 237 230 227 219 226 267 256 247 241 236 230 226 236 255 264 270 308 283 314 308
443 359 359 343 341 344 302 262 253 249 237 239 265 272 272 272 261 248 240 235 234 233 233 225 221 217 234 261 257 249 239 228 223 221 227 252 252 270 255 258 287 259 191 327 334
369 355 354 350 337 325 267 257 239 200 237 235 220 253 252 241 239 235 231 227 229 228 220 272 259 255 246 239 229 216 220 210 219 245 239 251 243 249 257 279 208 246 350 414 377
359 369 346 362 360 273 269 260 244 239 153 257 260 247 247 239 235 226 222 225 223 220 215 214 211 207 205 221 216 216 218 238 245 228 232 250 244 244 250 252 256 271 271 85 452
362 356 354 344 338 302 252 242 240 237 231 244 259 243 241 238 232 224 220 224 219 216 212 214 208 205 210 215 218 230 245 235 241 166 226 240 235 235 220 254 244 217 281 268 289
Wind_Speed
55 38 36 33 35 38 43 56 62 76 84 82 83 85 93 93 98 76 106 99 106 90 100 97 90 94 90 87 86 81 80 85 91 92 88 84 79 74 27 53 59 38 55 53 69
71 37 37 36 35 39 42 47 58 68 82 80 82 85 85 96 86 100 96 90 104 108 102 100 98 90 95 87 77 80 83 87 90 92 91 85 81 77 77 85 77 43 33 45 70
80 40 34 38 39 39 42 47 48 62 74 85 81 85 86 86 95 100 100 96 75 102 103 102 104 99 94 89 87 87 83 90 88 89 87 84 82 77 82 87 85 80 65 80 82
72 51 43 37 42 44 46 46 52 56 58 84 89 89 86 87 88 97 96 101 94 103 98 103 104 94 103 97 86 92 92 85 88 86 84 87 85 83 83 85 85 83 83 55 84
70 27 45 40 43 46 49 50 51 55 57 73 85 86 87 85 87 90 98 99 94 86 99 108 105 104 104 97 95 90 85 85 86 84 86 90 90 82 82 82 86 84 83 87 89
59 53 53 48 42 47 51 53 51 55 58 58 73 77 92 84 87 86 92 99 99 101 101 102 98 107 100 100 100 86 89 91 97 96 93 81 92 85 87 83 84 85 86 88 90
75 58 45 63 28 57 52 56 54 56 58 60 57 77 89 93 88 88 87 92 98 98 100 98 98 96 103 105 96 102 102 99 97 95 93 95 86 77 83 85 86 81 84 83 86
76 74 45 38 44 71 63 56 60 56 58 59 59 66 79 92 90 89 83 89 92 97 99 97 97 95 95 87 96 99 100 102 94 99 96 94 95 96 93 90 87 91 93 87 103
87 48 41 40 39 18 69 61 61 60 59 60 58 55 53 81 93 91 86 88 87 91 97 97 96 95 95 93 95 88 88 91 98 94 99 90 97 97 85 92 90 99 95 97 93
28 22 29 27 27 32 19 71 63 63 61 65 57 52 45 65 85 91 89 88 91 88 92 95 93 92 91 92 90 94 88 92 97 97 93 94 97 101 99 98 91 98 95 39 91
38 33 27 13 10 14 17 17 68 68 67 55 51 50 47 59 80 87 86 90 91 90 86 88 90 91 95 93 91 88 88 88 68 92 94 94 89 90 96 94 96 96 93 94 94
9 24 15 15 13 12 17 14 78 64 63 56 55 50 49 52 70 81 82 84 90 90 86 84 85 90 93 91 91 89 91 92 88 86 86 86 84 93 90 89 86 88 88 89 88
13 9 15 10 3 9 16 16 38 63 65 58 53 50 48 46 58 78 75 71 80 87 86 83 83 83 85 87 91 93 89 93 92 88 86 85 82 85 86 87 87 89 89 90 91
43 32 21 16 10 12 10 19 54 67 54 55 50 47 41 41 51 77 72 66 68 83 86 81 80 81 81 83 81 88 89 94 95 92 88 83 75 84 83 86 87 29 91 92 82
43 33 27 16 14 7 7 47 68 61 54 51 47 43 39 40 43 54 70 66 67 71 77 78 77 81 80 77 78 80 83 87 88 92 92 92 87 91 91 95 96 94 94 93 91
36 32 20 20 10 9 15 67 74 57 49 50 45 36 34 35 38 44 69 68 65 67 69 73 76 75 76 76 76 78 81 81 81 81 83 87 84 81 90 91 91 92 92 92 92
30 24 15 8 2 14 64 69 62 56 40 42 37 33 35 33 34 37 54 70 67 67 69 67 68 70 70 67 66 76 79 77 75 76 77 77 77 74 83 89 90 89 90 91 93
37 19 10 5 11 0 64 63 59 47 38 38 36 34 31 32 35 40 43 58 65 64 64 66 66 67 66 65 65 62 75 73 71 72 72 70 72 76 82 79 87 41 83 55 84
39 25 9 9 21 61 55 59 49 43 37 34 28 32 28 32 36 35 34 37 39 45 57 63 65 63 62 61 59 62 55 57 68 70 70 70 69 71 77 29 77 31 86 87 26
34 21 6 19 66 20 60 59 49 42 38 35 32 33 28 35 34 34 36 35 38 37 35 37 35 38 41 42 46 57 56 58 62 64 65 63 68 75 81 80 77 52 83 60 18
24 14 16 61 54 61 60 54 43 40 35 35 31 26 35 38 37 36 36 34 33 33 34 34 34 38 38 38 41 46 50 51 53 55 55 59 59 70 63 58 60 67 75 41 66
15 26 46 60 59 52 54 52 42 37 35 32 27 27 30 33 35 35 33 31 27 26 26 28 32 32 29 28 31 35 38 41 44 49 39 35 44 56 55 60 65 71 72 81 15
31 49 48 59 46 55 51 41 38 34 31 27 24 25 33 31 32 25 25 26 25 25 26 27 25 23 25 30 35 33 22 24 28 34 39 42 44 50 44 51 56 43 49 56 65
48 48 47 52 49 52 44 38 34 30 29 25 23 26 28 28 30 28 28 26 25 24 22 22 22 27 25 23 21 19 23 27 36 39 40 35 35 28 35 37 41 43 26 62 70
16 19 28 40 38 39 41 34 28 10 26 24 22 28 30 32 32 29 27 23 20 21 22 21 24 22 22 22 22 25 28 36 33 23 30 28 30 23 29 30 24 48 49 39 42
19 29 14 33 38 19 31 35 28 25 8 24 30 29 32 32 30 27 24 22 22 23 23 22 22 24 24 23 24 27 27 19 17 26 11 9 19 16 25 25 30 33 38 20 20
17 1 18 20 27 25 22 26 26 26 25 22 31 30 31 32 31 28 26 25 25 25 26 24 25 25 23 23 23 18 13 15 12 19 18 15 18 20 22 30 25 27 35 33 40
Wind_Direction
328 307 296 286 260 256 252 241 237 230 228 231 229 227 226 225 226 230 228 229 231 231 234 236 235 235 235 235 234 235 235 237 239 240 241 240 239 238 240 241 246 240 241 240 246
335 308 294 283 272 253 249 246 237 231 226 229 229 228 225 225 227 225 228 230 230 232 233 235 234 235 236 236 234 234 236 237 238 240 242 241 240 239 245 245 244 235 243 245 250
335 314 295 279 269 261 251 244 241 233 230 228 229 228 226 224 224 224 224 228 231 230 232 234 236 235 235 235 237 236 235 238 239 241 244 246 243 243 245 244 245 247 248 247 246
325 314 299 278 266 259 247 245 239 238 235 227 229 229 226 225 224 224 224 226 228 231 231 233 235 234 237 236 233 236 239 238 241 241 242 245 245 244 246 248 248 246 247 247 252
321 311 298 282 264 256 252 241 239 237 235 229 226 227 226 225 225 224 224 225 228 230 229 232 234 236 237 235 236 236 237 236 239 239 244 245 246 243 246 247 251 252 249 251 255
317 309 293 286 265 251 246 245 235 235 233 232 227 229 223 221 223 225 223 224 225 226 230 231 231 235 237 238 237 234 238 241 245 246 242 245 245 247 250 249 249 252 253 254 255
321 311 290 296 299 272 242 239 238 231 232 233 229 226 220 222 221 224 224 222 224 225 227 229 232 233 235 238 238 241 240 241 242 241 243 246 246 247 247 249 251 250 253 254 254
320 315 294 295 271 263 257 232 234 230 227 230 231 223 218 220 220 222 221 224 222 223 225 226 230 232 234 234 236 238 240 243 240 246 244 246 250 251 252 254 253 256 256 258 260
323 303 294 281 270 292 235 235 224 226 224 225 227 225 217 217 219 220 218 223 225 223 225 225 227 230 233 234 237 238 237 239 243 242 248 245 250 252 251 255 257 259 259 261 262
318 313 300 292 276 249 283 220 227 228 231 222 220 221 216 214 218 217 217 218 224 225 223 225 226 229 233 234 234 237 237 241 244 246 245 248 251 254 256 257 255 258 259 263 261
325 319 312 300 278 280 308 250 214 219 224 217 218 217 214 210 214 216 217 216 221 225 225 223 225 226 230 232 235 237 240 241 245 242 244 249 249 251 256 257 259 258 259 260 261
301 320 311 310 280 260 329 251 208 216 221 211 213 214 218 210 209 214 217 217 218 224 226 224 224 227 227 230 235 238 239 241 243 243 244 246 247 252 254 257 257 259 259 261 262
353 319 323 314 346 277 273 210 190 206 210 207 209 210 216 209 207 211 216 217 218 221 226 225 225 226 229 231 231 231 238 240 243 245 246 250 251 253 255 257 259 260 261 263 265
354 357 351 330 241 242 312 180 162 203 207 202 206 208 211 211 208 208 214 217 215 218 224 226 228 228 229 231 234 232 235 238 241 244 246 249 252 255 255 258 260 269 262 262 262
344 341 340 329 299 233 215 163 170 193 198 198 201 202 208 209 209 206 213 215 215 216 223 226 228 230 230 235 236 237 238 238 241 242 245 247 247 251 257 257 258 259 261 262 262
332 327 332 320 323 182 179 156 179 188 190 192 196 196 202 208 208 205 210 212 216 217 220 224 228 230 232 235 235 239 241 242 243 244 245 248 248 247 254 257 256 257 260 264 265
337 326 334 339 146 172 153 172 178 184 182 187 188 191 198 203 201 197 204 211 215 218 220 222 226 229 231 233 236 237 241 243 245 247 248 249 253 250 250 256 260 262 263 264 264
1 14 6 33 134 261 165 165 179 169 178 182 184 185 193 196 188 191 198 211 217 221 222 224 225 230 231 233 235 239 242 245 247 250 252 251 254 256 259 259 260 241 262 262 266
350 350 7 113 140 151 158 170 171 165 168 181 179 186 190 185 178 182 186 193 200 213 225 227 226 230 233 237 238 240 240 243 247 252 256 258 259 261 260 228 261 236 266 267 251
354 7 81 123 149 357 159 174 161 164 169 163 172 180 187 181 179 177 179 184 190 194 196 206 210 218 223 229 235 241 244 246 249 254 256 260 260 261 263 264 266 258 268 262 278
7 64 109 147 152 157 167 167 155 161 161 165 172 182 182 181 182 185 184 185 187 190 198 208 215 223 225 232 237 242 246 249 252 255 256 255 264 262 260 263 265 264 263 252 266
77 106 142 150 160 167 166 166 157 158 161 165 167 175 186 184 188 186 187 185 189 195 202 211 219 224 224 226 232 238 244 249 254 258 252 252 248 262 267 266 266 269 272 275 263
108 144 155 152 168 167 167 151 153 156 157 160 166 176 179 181 183 176 179 175 178 186 196 206 213 218 225 228 235 240 226 231 242 249 256 258 259 262 277 280 280 297 288 288 287
121 152 161 165 173 166 152 151 151 152 157 157 165 166 167 169 166 160 166 175 184 193 199 206 212 219 212 202 209 216 230 238 249 256 269 279 285 300 299 305 303 299 309 297 290
92 132 167 170 174 160 155 153 159 154 158 156 175 157 155 162 164 170 173 183 185 191 200 173 170 179 193 209 224 239 244 250 261 272 281 283 292 297 316 330 293 295 333 313 291
14 158 159 167 175 142 165 155 158 156 326 162 164 163 164 168 171 176 183 183 187 194 201 207 214 226 232 228 236 243 253 276 254 280 295 314 303 307 349 335 350 4 5 260 320
349 248 187 195 181 165 160 160 162 164 170 168 172 170 174 176 179 184 188 189 197 202 209 211 220 229 233 237 243 251 234 242 236 271 280 331 311 315 303 348 348 311 25 31 47